Regional Weather Roundup
Issued by NWS Charleston, SC

Current Version | Previous Version | Text Only | Print | Product List | Glossary Off
Versions: 1 2 3 4 5 6 7 8 9 10 11 12 13 14 15 16 17 18 19 20 21 22 23 24 25 26 27 28 29 30 31 32 33 34 35 36 37 38 39 40 41 42 43 44 45 46 47 48 49 50
000 ASUS42 KCHS 011526 RWRCHS REGIONAL WEATHER ROUNDUP NATIONAL WEATHER SERVICE CHARLESTON SC 1000 AM EST SUN FEB 01 2015 NOTE: "FAIR" INDICATES FEW OR NO CLOUDS BELOW 12,000 FEET WITH NO SIGNIFICANT WEATHER AND/OR OBSTRUCTIONS TO VISIBILITY. NOT ALL STATIONS ARE QUALITY CONTROLLED BY THE NATIONAL WEATHER SERVICE. USE DATA WITH CAUTION...ESPECIALLY DEWPOINT OBSERVATIONS. SCZ027-030-031-034>040-042>050-011600- ...SOUTHEAST SOUTH CAROLINA... CITY SKY/WX TMP DP RH WIND PRES REMARKS N CHARLESTON PTSUNNY 55 40 56 SE9 30.30F WATERFRONT PRK N/A 57 N/A N/A SE5 N/A MOUNT PLEASANT FAIR 55 45 67 CALM 30.31S PINOPOLIS N/A 48 36 61 SE5 30.22R MONCKS CORNER FAIR 54 37 54 SE5 30.31R SUMMERVILLE FAIR 52 37 58 SE3 30.30F BEAUFORT MCAS SUNNY 58 46 64 SE8 30.29S BEAUFORT ARPT FAIR 61 48 63 E6 30.29S HILTON HEAD IS SUNNY 59 46 63 NE6 30.30R WALTERBORO PTSUNNY 59 34 38 SE7 30.30S ALLENDALE FAIR 54 39 58 SE6 30.28S ...SOUTHERN MIDLANDS AND PEE DEE... CITY SKY/WX TMP DP RH WIND PRES REMARKS GEORGETOWN NOT AVBL KINGSTREE NOT AVBL ORANGEBURG MOSUNNY 48 33 56 SE6 30.29S BARNWELL FAIR 52 37 58 SE6 30.28F AIKEN FAIR 52 34 50 SE7 30.29F MANNING FAIR 54 34 47 CALM 30.30S COLUMBIA PTSUNNY 47 32 56 CALM 30.28F SUMTER CLOUDY 47 31 54 SE5 30.27F FLORENCE PTSUNNY 47 31 53 S6 30.30F MYRTLE BEACH MOSUNNY 54 36 50 S10 30.34R N MYRTLE BEACH PTSUNNY 53 37 54 S6 30.32S $$ GAZ063-065-086>088-099>101-113>116-118-119-134>141-150-011600- ...SOUTHEAST GEORGIA... CITY SKY/WX TMP DP RH WIND PRES REMARKS SAVANNAH ARPT PTSUNNY 61 45 55 SE10 30.28S HUNTER AAF SUNNY 62 49 61 SE7 30.26S FORT STEWART MOSUNNY 57 45 63 SE6 30.25S STATESBORO SUNNY 57 44 62 S7 30.26F SYLVANIA SUNNY 57 45 62 S5 30.28S CLAXTON FAIR 59 46 63 SE6 30.26F ...CSRA...CENTRAL AND FAR SOUTHEAST GEORGIA... CITY SKY/WX TMP DP RH WIND PRES REMARKS THOMSON SUNNY 56 43 61 SE6 30.27F AUGUSTA-BUSH SUNNY 48 34 58 SE6 30.27F AUGUSTA-DANIEL SUNNY 48 34 58 SE9 30.26F SWAINSBORO FAIR 59 36 41 SE9 30.24F VIDALIA SUNNY 57 46 67 SE8 30.24F EASTMAN FAIR 57 46 67 S7 30.24F HAZLEHURST FAIR 59 48 66 SE6 30.22F ALMA SUNNY 58 46 64 SE9 30.24F WAYCROSS SUNNY 64 51 63 S8 30.24F JESUP FAIR 64 52 63 CALM 30.26F BAXLEY FAIR 59 46 63 S9 30.24F BRUNSWICK MOSUNNY 64 50 59 SE5 30.28S SAINT SIMONS SUNNY 63 50 62 SE7 30.27S $$ SCZ027-028-034-036>038-045-046-048>050-GAZ119-141-011600- ...LAKE AND SUPPLEMENTAL COASTAL OBSERVATIONS... STATION/POSITION TIME TEMP WIND PRES WAVE SWELL AIR SEA DIR/SP/G HT/PER HT/PER/DIR (UTC) (F) (DEG/KT/KT) (MB) (FT/S) (FT/S/D) UPR LAKE MARION NOT AVBL WINYAH BAY 1445 51 110/ 3 1026.0S LAKE MURRAY 1500 49 170/ 4/ 6 1024.7S ACE BASIN NERRS 1400 49 50/ 1 1025.0 FORT PULASKI 1500 58 52 100/ 5/ 7 1025.8S SAPELO ISLAND 1500 63 110/ 6 1025.0S $$ ANZ835-935-AMZ111-154-330-350-352-354-370-450-454-472-011600- ...C-MAN AND BUOY OBSERVATIONS... STATION/POSITION TIME TEMP WIND PRES WAVE SWELL AIR SEA DIR/SP/G HT/PER HT/PER/DIR (UTC) (F) (DEG/KT/KT) (MB) (FT/S) (FT/S/D) BUOY 41004 1450 60 70 190/ 8/ 12 1026.3R 4/11 3/11 BUOY 41008 1450 57 54 100/ 4/ 4 1025.4R 2/11 2/ 70/11 FOLLY BEACH CMAN 1500 53 90/ 6/ 6 1026.6F CAPERS NEARSHORE 1400 54 90/ 8/ 10 N/A FRIPP NEARSHORE 1400 55 110/ 6/ 6 1024.9S STATION/POSITION TIME TEMP WIND PRES WAVE SWELL AIR SEA DIR/SP/G HT/PER HT/PER/DIR (UTC) (F) (DEG/KT/KT) (MB) (FT/S) (FT/S/D) 5E ST. MARYS GA 1421 56 N/A 3/10 2/ 80/11 FRYING PAN BUOY 1450 56 63 180/ 8/ 10 1027.7F 2/10 2/ 70/10 BUOY 41025 1450 52 71 270/ 14/ 17 1026.8R 7/11 7/ 60/11 CAPE LOOKOUT NC 1500 49 320/ 3/ 3 1026.2F BUOY 41002 1450 59 70 20/ 4/ 6 1028.8R 8/11 8/ 10/11 BUOY 41010 1420 66 74 150/ 12/ 17 1026.1R ST AUGUSTINE FL 1500 59 CALM / 1 1025.3F $$

USA.gov is the U.S. government's official web portal to all federal, state and local government web resources and services.